N3SW-13 Weather Reports


time (UTC)temp
C
wind
direction
speed
KPH
gust
KPH
rain 1hr
cm
rain 24hr
cm
rain mn
cm
humidity
%
barometer
mb
20260906114541 20 23 0.0 0.0 0.00 0.00 0.00 89 1012.4
20260906113040 20 23 0.0 0.0 0.00 0.00 0.00 90 1012.3
20260906111540 20 23 0.0 0.0 0.00 0.00 0.00 90 1012.2
20260906110038 21 23 0.0 0.0 0.00 0.00 0.00 90 1012.1
20260906104537 21 23 0.0 0.0 0.00 0.00 0.00 89 1012.0
20260906103038 21 23 0.0 0.0 0.00 0.00 0.00 89 1012.2
20260906101537 21 23 0.0 0.0 0.00 0.00 0.00 89 1011.8
20260906100041 21 23 0.0 0.0 0.00 0.00 0.00 89 1011.7
20260906094536 21 23 0.0 0.0 0.00 0.00 0.00 89 1011.8
20260906093047 21 23 0.0 0.0 0.00 0.00 0.00 89 1011.6
20260906091532 21 23 0.0 0.0 0.00 0.00 0.00 89 1011.7
20260906090033 21 23 0.0 0.0 0.00 0.00 0.00 88 1011.3
20260906084531 21 23 0.0 0.0 0.00 0.00 0.00 89 1011.2
20260906083031 21 23 0.0 0.0 0.00 0.00 0.00 89 1011.1
20260906081545 21 23 0.0 0.0 0.00 0.00 0.00 88 1011.0
20260906080029 21 23 0.0 0.0 0.00 0.00 0.00 87 1010.9
20260906074529 21 23 0.0 0.0 0.00 0.00 0.00 87 1010.9
20260906073045 21 23 0.0 0.0 0.00 0.00 0.00 87 1010.7
20260906071528 21 23 0.0 0.0 0.00 0.00 0.00 87 1010.9
20260906070036 21 23 0.0 0.0 0.00 0.00 0.00 86 1011.1
20260906064524 21 23 0.0 0.0 0.00 0.00 0.00 87 1011.2
20260906063022 21 23 0.0 0.0 0.00 0.00 0.00 86 1011.3
20260906061520 21 23 0.0 0.0 0.00 0.00 0.00 86 1011.3
20260906060018 21 23 0.0 0.0 0.00 0.00 0.00 85 1011.3
20260906054522 22 23 0.0 0.0 0.00 0.00 0.00 85 1011.4
20260906053015 22 23 0.0 0.0 0.00 0.00 0.00 84 1011.4
20260906051520 22 23 0.0 0.0 0.00 0.00 0.00 83 1011.3
20260906050012 22 23 0.0 0.0 0.00 0.00 0.00 82 1011.1
20260906044512 22 23 0.0 0.0 0.00 0.00 0.00 81 1011.4
20260906043009 22 23 0.0 0.0 0.00 0.00 0.00 81 1011.1
20260906041508 23 23 0.0 0.0 0.00 0.00 0.00 80 1011.3
20260906040004 23 23 0.0 0.0 0.00 0.00 0.00 79 1011.2
20260906034503 23 23 0.0 0.0 0.00 0.00 0.00 78 1011.3
20260906033002 23 23 0.0 1.6 0.00 0.00 0.00 77 1011.6
20260906031501 24 23 0.0 6.4 0.00 0.00 0.00 76 1011.5
20260906030108 24 23 0.0 4.8 0.00 0.00 0.00 73 1011.5
20260906024600 25 23 0.0 1.6 0.00 0.00 0.00 68 1011.5
20260906023127 25 23 0.0 0.0 0.00 0.00 0.00 67 1011.3
20260906021559 25 23 0.0 1.6 0.00 0.00 0.00 67 1011.0
20260906020058 25 23 0.0 1.6 0.00 0.00 0.00 66 1011.0
20260906014623 25 23 0.0 0.0 0.00 0.00 0.00 66 1010.8
20260906013058 25 23 0.0 1.6 0.00 0.00 0.00 66 1010.7
20260906011559 26 23 0.0 3.2 0.00 0.00 0.00 65 1010.5
20260906010055 26 23 0.0 1.6 0.00 0.00 0.00 63 1010.4
20260906004608 27 23 0.0 3.2 0.00 0.00 0.00 61 1010.3
20260906003056 27 23 0.0 0.0 0.00 0.00 0.00 60 1010.2
20260906001554 27 23 0.0 3.2 0.00 0.00 0.00 59 1010.0
20260906000105 27 23 0.0 0.0 0.00 0.00 0.00 59 1009.8
20260905234557 28 23 0.0 3.2 0.00 0.00 0.00 61 1009.6
20260905233056 28 23 0.0 1.6 0.00 0.00 0.00 60 1009.7
20260905231554 28 23 0.0 0.0 0.00 0.00 0.00 57 1009.6
20260905230052 28 23 0.0 1.6 0.00 0.00 0.00 57 1009.6
20260905224603 29 23 0.0 1.6 0.00 0.00 0.00 57 1009.5
20260905223051 29 23 0.0 3.2 0.00 0.00 0.00 56 1009.5
20260905221550 29 23 1.6 4.8 0.00 0.00 0.00 57 1009.6
20260905220050 30 23 1.6 9.7 0.00 0.00 0.00 56 1009.3
20260905214549 30 20 0.0 6.4 0.00 0.00 0.00 50 1009.4
20260905213049 30 20 0.0 12.9 0.00 0.00 0.00 52 1009.1
20260905211549 31 360 0.0 4.8 0.00 0.00 0.00 51 1009.0
20260905210047 31 266 0.0 3.2 0.00 0.00 0.00 52 1009.0
20260905204547 31 265 0.0 4.8 0.00 0.00 0.00 49 1009.1
20260905203047 31 250 0.0 8.0 0.00 0.00 0.00 48 1009.0
20260905201547 31 205 0.0 6.4 0.00 0.00 0.00 47 1009.0
20260905200052 32 200 0.0 11.3 0.00 0.00 0.00 46 1008.9
20260905194539 31 22 0.0 6.4 0.00 0.00 0.00 48 1008.7
20260905193040 30 23 0.0 9.7 0.00 0.00 0.00 50 1008.8
20260905191538 30 284 0.0 4.8 0.00 0.00 0.00 55 1009.1
20260905190045 30 286 0.0 6.4 0.00 0.00 0.00 56 1009.6
20260905184531 30 267 0.0 16.1 0.00 0.00 0.00 59 1009.9
20260905183025 29 11 1.6 4.8 0.00 0.00 0.00 62 1010.2
20260905181526 28 11 1.6 12.9 0.00 0.00 0.00 62 1010.5
20260905180023 28 19 0.0 6.4 0.00 0.00 0.00 61 1010.6
20260905174522 28 19 0.0 1.6 0.00 0.00 0.00 60 1010.5
20260905173021 28 19 0.0 4.8 0.00 0.00 0.00 60 1010.4
20260905171517 28 19 1.6 9.7 0.00 0.00 0.00 62 1010.7
20260905170015 28 20 1.6 9.7 0.00 0.00 0.00 61 1011.0
20260905164511 28 28 0.0 4.8 0.00 0.00 0.00 65 1011.3
20260905163012 27 28 0.0 3.2 0.00 0.00 0.00 66 1011.5
20260905161508 27 28 0.0 4.8 0.00 0.00 0.00 66 1011.4
20260905160009 27 28 1.6 8.0 0.00 0.00 0.00 68 1011.9
20260905154506 27 28 0.0 8.0 0.00 0.00 0.00 70 1012.2
20260905153005 27 28 0.0 9.7 0.00 0.00 0.00 70 1012.3
20260905151505 27 26 3.2 14.5 0.00 0.00 0.00 69 1012.3
20260905150004 28 30 0.0 1.6 0.00 0.00 0.00 70 1011.9
20260905144502 28 30 0.0 1.6 0.00 0.00 0.00 69 1011.6
20260905143001 27 30 0.0 3.2 0.00 0.00 0.00 71 1011.8
20260905141559 27 30 0.0 1.6 0.00 0.00 0.00 72 1011.7
20260905140104 26 30 1.6 6.4 0.00 0.00 0.00 75 1011.5
20260905134551 25 30 0.0 4.8 0.00 0.00 0.00 78 1011.7
20260905133046 25 30 0.0 0.0 0.00 0.00 0.00 81 1011.4
20260905131557 24 30 0.0 3.2 0.00 0.00 0.00 83 1011.3
20260905130042 23 30 0.0 1.6 0.00 0.00 0.00 86 1011.3
20260905124534 22 30 1.6 3.2 0.00 0.00 0.00 87 1011.3
20260905123035 21 30 0.0 1.6 0.00 0.00 0.00 88 1011.2
20260905121537 21 30 0.0 1.6 0.00 0.00 0.00 89 1011.5
20260905120038 21 30 0.0 1.6 0.00 0.00 0.00 89 1011.4